Regional Weather Roundup
Issued by NWS Sterling, VA

Home | Current Version | Previous Version | Graphics & Text | Print | Product List | Glossary On
Versions: 1 2 3 4 5 6 7 8 9 10 11 12 13 14 15 16 17 18 19 20 21 22 23 24 25 26 27 28 29 30 31 32 33 34 35 36 37 38 39 40 41 42 43 44 45 46 47 48 49 50
000
ASUS41 KLWX 231410
RWRLWX

REGIONAL WEATHER ROUNDUP
NATIONAL WEATHER SERVICE BALTIMORE MD/WASHINGTON DC
900 AM EST SUN NOV 23 2014

Note: "FAIR" indicates few or no clouds below 12,000 feet
with no significant weather and/or obstructions to visibility.
 TC=TEMPERATURE CELSIUS

 * =Non NWS site. Station does not report precipitation (e.g. rain,
    snow, etc.), thunder, or fog.

DCZ001-MDZ009-015-VAZ040>042-051-053>054-231500-
WASHINGTON METRO

CITY           SKY/WX    TMP DP  RH WIND       PRES   REMARKS
WASHINGTON NAT PTSUNNY   44  26  49 S3        30.24F
DULLES         PTSUNNY   39  23  52 CALM      30.21F
ANDREWS AFB    CLOUDY    42  22  43 S5        30.22S
FT BELVOIR     CLOUDY    39  28  64 CALM      30.23F
QUANTICO       CLOUDY    40  24  53 CALM      30.24S
COLLEGE PARK*  PTSUNNY   41  25  52 CALM      30.22F
LEESBURG*      PTSUNNY   36  30  80 MISG      30.21S
GAITHERSBURG*  MOSUNNY   37  19  48 CALM      30.24S

$$

MDZ006>007-011-014-231500-
BALTIMORE METRO

CITY           SKY/WX    TMP DP  RH WIND       PRES   REMARKS
BWI AIRPORT    PTSUNNY   40  22  48 CALM      30.22F
MD SCIENCE CTR   N/A     42  21  43 MISG      30.23F
MARTIN STATE   MOSUNNY   43  27  52 SE5       30.24F
ANNAPOLIS      PTSUNNY   42  30  62 CALM      30.23F
FORT MEADE*    PTSUNNY   36  28  75 CALM      30.25S

$$

MDZ012-015-019>023-231500-
MARYLAND EASTERN SHORE

CITY           SKY/WX    TMP DP  RH WIND       PRES   REMARKS
OCEAN CITY     PTSUNNY   46  33  60 SW3       30.28S
SALISBURY      CLOUDY    45  35  68 CALM      30.27S
BAY BRIDGE AP*   N/A     45  23  42 S6        30.24F
CAMBRIDGE*     CLOUDY    45  32  61 CALM      30.24F

$$

MDZ017>025-231500-
SOUTHERN MARYLAND

CITY           SKY/WX    TMP DP  RH WIND       PRES   REMARKS
PATUXENT RIVER CLOUDY    47  24  40 S6        30.24F
ST INIGOES     CLOUDY    47  26  44 S5        30.25F
LEONARDTOWN*   CLOUDY    46  23  39 S7        30.25S

$$

MDZ003>005-231500-
NORTH CENTRAL MARYLAND

CITY           SKY/WX    TMP DP  RH WIND       PRES   REMARKS
FREDERICK*     SUNNY     43  25  49 CALM      30.23F
HAGERSTOWN APT MOSUNNY   43  23  45 CALM      30.19S
WESTMINSTER*   MOSUNNY   41  21  45 SE3       30.19F

$$

MDZ501>502-231500-
WESTERN MARYLAND

CITY           SKY/WX    TMP DP  RH WIND       PRES   REMARKS
OAKLAND*       MOSUNNY   48  37  66 SW6       30.13R
CUMBERLAND*    MOSUNNY   36  27  69 CALM      30.22R

$$

VAZ025>031-231500-
SHENANDOAH VALLEY

CITY           SKY/WX    TMP DP  RH WIND       PRES   REMARKS
WINCHESTER*    MOSUNNY   45  14  29 SW8       30.18S
FRONT ROYAL*   FAIR      43  23  45 S7        30.18R
LURAY*         FAIR      45  30  57 CALM      30.20R
NEW MARKET*    FAIR      37  24  59 CALM      30.20R
STAUNTON*      CLOUDY    44  25  47 CALM      30.20F
WAYNESBORO*    FAIR      39  23  54 CALM      30.18S

$$

WVZ021-048>050-054>055-231500-
EASTERN WEST VIRGINIA PANHANDLE

CITY           SKY/WX    TMP DP  RH WIND       PRES   REMARKS
MARTINSBURG    MOSUNNY   43  24  47 N5        30.18F
PETERSBURG*    PTSUNNY   38  29  68 CALM      30.16F

$$

VAZ036>039-050-231500-
CENTRAL FOOTHILLS

CITY           SKY/WX    TMP DP  RH WIND       PRES   REMARKS
CHARLOTTESVILL CLOUDY    39  24  55 CALM      30.20R
CULPEPER*      CLOUDY    39  27  60 CALM      30.21S
ORANGE*        CLOUDY    41  25  52 CALM      30.23R
GORDONSVILLE*  FAIR      37  22  55 CALM      30.21R
WARRENTON*     FAIR      40  31  71 CALM      30.20S

$$

VAZ055>057-231500-
NORTH AND CENTRAL PIEDMONT

CITY           SKY/WX    TMP DP  RH WIND       PRES   REMARKS
FREDERICKSBRG* CLOUDY    39  27  60 CALM      30.22S
STAFFORD*      CLOUDY    36  24  63 CALM      30.26F

$$

NCZ024-NYZ072-PAZ021-071-VAZ022-071-231500-
OTHER REGIONAL OBSERVATIONS

CITY           SKY/WX    TMP DP  RH WIND       PRES   REMARKS
NEW YORK CITY  CLOUDY    45  21  38 VRB5      30.23S
PHILADELPHIA   PTSUNNY   45  24  43 SW9       30.25S
PITTSBURGH     CLOUDY    47  30  51 VRB7      30.09R
ROANOKE        CLOUDY    34  24  67 CALM      30.23S
RICHMOND       CLOUDY    44  25  47 S5        30.25S
RALEIGH        CLOUDY    44  32  62 CALM      30.25S

$$

ANZ530>537-231500-
MARINE OBSERVATIONS

STATION/POSITION TIME  TEMP    WIND        PRES
                       AIR SEA DIR/SP/G
                 (UTC) (F)     (DEG/KT/KT) (MB)
THOMAS PT LIGHT  1400   45 47  200/  9/ 10 1025.2F
BALT KEY BRIDGE  1400   42     140/  4/  5 1023.7F
COVE POINT       1400   46     190/  6/  7 1024.0R
LEWISETTA        1400   45 42  190/  5/  7 1024.1F
SOLOMONS ISLAND  1400      47                N/A
PINEY POINT      1400          200/  5/  5   N/A

$$




USA.gov is the U.S. government's official web portal to all federal, state and local government web resources and services.